EHI
19 10 2 0 0 0 0 0 0 0 0 0 0 0 0 0 0 0 0 0 0 0 0 0 0 0 0 0 0 0 0 0 0 0 0 0 0 0 0 0 0 0 0 0 0 1 3 7 10
10 5 1 0 0 0 0 0 0 0 0 0 0 0 0 0 0 0 0 0 0 0 0 0 0 0 0 0 0 0 0 0 0 0 0 0 0 0 0 0 0 0 0 0 0 1 2 5 6
2 1 0 0 0 0 0 0 0 0 0 0 0 0 0 0 0 0 0 0 0 0 0 0 0 0 0 0 0 0 0 0 0 0 0 0 0 0 0 0 0 0 0 0 0 1 1 2 2
0 0 0 0 0 0 0 0 0 0 0 0 0 0 0 0 0 0 0 0 0 0 0 0 1 1 0 0 0 0 0 0 0 0 0 0 0 0 0 0 0 0 0 0 0 0 0 0 0
0 0 0 0 0 0 0 0 0 0 0 0 0 0 0 0 0 0 0 0 0 0 0 2 4 4 2 2 1 0 0 0 0 0 0 0 0 0 0 0 0 0 0 0 0 0 0 0 0
0 0 0 0 0 0 0 0 0 0 0 0 0 0 0 0 0 0 0 0 0 0 0 2 5 6 6 6 4 2 0 0 0 0 0 0 0 0 0 0 0 0 0 0 0 0 0 0 0
0 0 0 0 0 0 0 0 0 0 0 0 0 0 0 0 0 0 0 0 0 0 0 1 3 5 7 7 7 5 2 0 0 0 0 0 0 0 0 0 0 0 0 0 0 0 0 0 0
0 0 0 0 0 0 0 0 0 0 0 0 0 0 0 0 0 0 0 0 0 0 0 0 1 4 5 6 7 6 3 1 0 0 0 0 0 0 0 0 0 0 0 0 0 0 0 0 0
0 0 0 0 0 0 0 0 0 0 0 0 0 0 0 0 0 0 0 0 0 0 0 1 2 4 6 6 6 6 4 1 0 0 0 0 0 0 0 0 0 0 0 0 0 0 0 0 0
0 0 0 0 0 0 0 0 0 0 0 0 0 0 0 0 0 0 0 0 0 0 0 1 2 4 5 5 4 4 3 1 0 0 0 0 0 0 0 0 0 0 0 0 0 0 0 0 0
0 0 0 0 0 0 0 0 0 0 0 0 0 0 0 0 0 0 0 0 0 0 0 1 2 3 4 3 2 3 3 2 0 0 0 0 0 0 0 0 0 0 0 0 0 0 0 0 0
0 0 0 0 0 0 0 0 0 0 0 0 0 0 0 0 0 0 0 0 0 0 1 1 2 3 3 2 2 3 5 3 2 1 0 0 0 0 0 0 0 0 0 0 0 0 0 0 0
0 0 0 0 0 0 0 0 0 0 0 0 0 0 0 0 0 0 0 0 0 0 1 2 1 2 3 2 2 3 5 5 3 2 1 0 0 0 0 0 0 0 0 0 0 0 0 0 0
0 0 0 0 0 0 0 0 0 0 0 0 0 0 0 0 0 0 0 0 0 0 1 1 1 2 3 2 1 2 4 4 3 3 3 2 0 0 0 0 0 0 0 0 0 0 0 0 0
0 0 0 0 0 0 0 0 0 0 0 0 0 0 0 0 0 0 0 0 0 0 0 0 0 1 1 1 1 2 3 3 3 3 4 3 1 0 0 0 0 0 0 0 0 0 0 0 0
0 0 0 0 0 0 0 0 0 0 0 0 0 0 0 0 0 0 0 0 0 0 0 0 0 0 0 0 1 4 5 6 5 4 3 1 0 0 0 0 0 0 0 0 0 0 0 0 0
0 0 0 0 0 0 0 0 0 0 0 0 0 0 0 0 0 0 0 0 0 0 0 0 0 0 0 0 1 4 6 6 5 4 2 0 0 0 0 0 0 0 0 0 0 0 0 0 0
0 0 0 0 0 0 0 0 0 0 0 0 0 0 0 0 0 0 0 0 0 0 0 0 0 0 0 0 1 2 2 3 3 2 1 1 0 0 0 0 0 0 0 0 0 0 0 0 0
0 0 0 0 0 0 0 0 0 0 0 0 0 0 0 0 0 0 0 0 0 0 0 0 0 0 0 0 0 0 0 0 0 1 2 1 0 0 0 0 0 0 0 0 0 0 0 0 0
0 0 0 0 0 0 0 0 0 0 0 0 0 0 0 0 0 0 0 0 0 0 0 0 0 0 0 0 0 0 0 0 0 1 1 1 0 0 0 0 0 0 0 0 0 0 0 0 0
0 0 0 0 0 0 0 0 0 0 0 0 0 0 0 0 0 0 0 0 0 0 0 0 0 0 0 0 0 0 0 0 0 0 0 0 0 1 0 0 0 0 0 0 0 0 0 0 0
0 0 0 0 0 0 0 0 0 0 0 0 0 0 0 0 0 0 0 0 0 0 0 0 0 0 0 0 0 0 0 0 0 0 0 0 0 0 0 0 0 0 0 0 0 0 0 0 0
0 0 0 0 0 0 0 0 0 0 0 0 0 0 0 0 0 0 0 0 0 0 0 0 0 0 0 0 0 0 0 0 0 0 0 0 0 0 0 0 0 0 0 0 0 0 0 0 0
0 0 0 0 0 0 0 0 0 0 0 0 0 0 0 0 0 0 0 0 0 0 0 0 0 0 0 0 0 0 0 0 0 0 0 0 0 0 0 0 0 0 0 0 0 0 0 0 0
0 0 0 0 0 0 0 0 0 0 0 0 0 0 0 0 0 0 0 0 0 0 0 0 0 0 0 0 0 0 0 0 0 0 0 0 0 0 0 0 0 0 0 0 0 0 0 0 0
0 0 0 0 0 0 0 0 0 0 0 0 0 0 0 0 0 0 0 0 0 0 0 0 0 0 0 0 0 0 0 0 0 0 0 0 0 0 0 0 0 0 0 0 0 0 0 0 0
0 0 0 0 0 0 0 0 0 0 0 0 0 0 0 0 0 0 0 0 0 0 0 0 0 0 0 0 0 0 0 0 0 0 0 0 0 0 0 0 0 0 0 0 0 0 0 0 0
0 0 0 0 0 0 0 0 0 0 0 0 0 0 0 0 0 0 0 0 0 0 0 0 0 0 0 0 0 0 0 0 0 0 0 0 0 0 0 0 0 0 0 0 0 0 0 0 0
0 0 0 0 0 0 0 0 0 0 0 0 0 0 0 0 0 0 0 0 0 0 0 0 0 0 0 0 0 0 0 0 0 0 0 0 0 0 0 0 0 0 0 0 0 0 0 0 0
0 0 0 0 0 0 0 0 0 0 0 0 0 0 0 0 0 0 0 0 0 0 0 0 0 0 0 0 0 0 0 0 0 0 0 0 0 0 0 0 0 0 0 0 0 0 0 0 0
Wind_Speed
1 4 4 3 6 7 3 3 2 2 4 2 3 5 5 3 2 1 1 7 9 9 7 9 12 11 11 10 9 9 9 9 9 9 9 9 9 9 9 9 8 8 7 7 7 7 7 8 8
1 3 3 5 7 4 2 2 1 2 4 3 4 5 5 4 3 5 4 5 10 10 7 8 12 11 11 10 9 9 8 8 9 8 8 8 8 8 8 8 7 7 7 7 6 6 7 7 7
3 2 4 5 5 3 0 1 1 3 3 2 4 4 4 2 4 5 5 9 9 8 7 8 13 12 11 10 9 9 8 8 8 8 8 7 7 7 7 7 6 6 6 6 6 6 6 6 6
3 4 5 6 4 1 2 1 3 5 3 5 4 4 3 2 5 5 10 11 10 7 6 8 13 12 11 10 9 9 8 8 8 7 7 7 6 6 6 6 6 6 6 6 5 5 5 6 6
4 4 7 5 4 4 3 1 3 4 3 3 3 4 3 4 6 11 11 11 10 8 6 7 14 13 12 11 10 9 8 8 8 7 7 6 6 6 6 5 5 5 5 5 5 4 4 4 5
4 5 6 3 6 6 5 5 3 4 3 3 4 3 2 1 7 10 10 9 8 9 8 7 14 14 13 12 11 10 10 9 8 8 7 6 6 5 5 4 4 4 4 4 4 4 4 4 4
5 5 4 2 4 6 6 5 3 3 3 2 4 4 1 2 5 9 8 7 6 7 7 6 7 10 13 13 12 12 11 10 9 8 7 7 6 6 5 4 3 3 2 3 3 3 4 4 4
4 6 4 2 2 4 7 4 3 3 2 3 4 6 4 5 5 6 6 5 5 5 5 5 5 6 6 7 13 13 12 11 11 10 9 8 7 6 6 5 3 2 2 1 1 2 3 3 4
4 6 2 1 1 2 4 4 4 3 4 3 2 2 4 8 9 6 4 4 5 6 5 5 5 5 5 5 9 11 12 12 11 9 11 8 3 3 3 5 5 4 3 2 1 1 1 3 5
5 4 3 3 2 1 2 4 5 5 6 6 5 5 6 9 8 7 6 6 8 9 8 6 6 6 5 6 5 4 4 5 5 4 5 3 3 3 4 4 7 6 5 4 3 2 2 4 3
3 4 2 1 1 0 2 5 8 6 6 6 5 3 6 6 4 3 4 5 7 6 6 7 6 5 5 4 3 2 2 3 4 5 5 4 3 2 2 1 3 3 3 1 2 2 2 2 1
3 1 1 1 2 2 3 4 8 13 7 8 6 8 10 9 7 7 6 5 3 3 4 5 6 6 6 5 3 3 3 3 4 5 5 4 3 3 3 2 2 2 1 1 1 1 1 0 1
2 2 3 5 6 7 11 11 8 13 11 15 19 19 16 14 11 10 10 9 8 6 5 3 4 6 6 6 4 4 5 5 5 4 5 5 4 4 4 3 3 3 2 2 2 2 2 2 2
2 5 5 7 7 7 13 12 10 11 11 17 19 17 14 13 12 11 12 11 10 9 8 6 3 3 5 6 6 5 5 5 5 5 6 7 5 5 4 4 4 3 3 3 3 3 2 2 2
2 5 7 8 6 3 8 14 13 11 11 18 16 14 14 13 13 12 10 10 9 9 9 8 6 4 3 5 7 6 5 5 6 6 7 8 7 6 5 4 4 4 4 4 3 2 2 2 2
5 5 5 6 8 5 10 9 12 11 14 16 14 13 13 13 13 11 11 10 10 10 10 9 8 7 5 4 5 5 5 6 6 6 6 9 9 8 6 5 5 4 3 3 3 2 2 2 2
7 4 3 5 10 7 10 8 10 11 14 15 13 12 11 11 13 12 11 10 10 9 9 9 9 9 8 6 5 6 5 7 6 6 6 8 9 9 7 6 6 5 4 4 4 3 3 3 3
2 2 2 4 6 10 12 10 9 11 13 12 11 11 11 11 11 10 10 10 8 8 8 8 9 8 8 6 4 3 4 5 6 7 8 8 7 9 8 6 5 4 4 4 4 3 3 3 3
2 3 2 2 4 8 11 10 8 10 13 13 12 11 11 11 9 9 9 9 9 9 8 8 9 9 7 5 4 4 3 4 5 7 8 9 8 8 7 5 4 4 4 5 5 3 4 2 2
4 3 2 2 5 7 7 7 5 7 10 9 10 11 12 14 14 13 12 10 10 9 9 8 8 9 8 6 5 4 5 5 4 5 6 9 9 9 7 7 5 4 3 3 4 3 3 2 3
3 3 0 1 4 5 4 3 6 5 6 10 11 10 10 13 14 14 13 11 10 10 10 9 9 9 8 8 6 5 4 3 3 4 5 7 9 10 9 9 7 6 5 5 5 5 5 3 2
2 1 2 2 3 2 2 0 5 8 8 14 15 13 13 13 13 13 12 12 11 10 9 8 9 9 8 8 6 7 5 5 4 3 3 4 6 7 8 9 9 8 7 7 6 6 4 4 3
3 4 1 1 4 4 7 3 5 7 10 16 15 14 14 13 13 13 12 11 10 9 8 8 8 8 8 8 7 6 5 5 4 3 3 3 2 3 5 6 7 7 7 7 6 6 5 4 3
3 2 4 5 6 5 4 3 5 6 10 15 15 15 14 14 13 13 11 10 9 8 8 7 7 8 8 8 7 6 7 6 4 3 1 1 1 1 2 4 5 5 5 7 7 7 7 5 4
8 5 4 5 6 2 3 3 3 6 7 10 13 14 14 12 12 13 13 12 11 10 9 8 7 8 8 8 7 7 7 6 5 4 2 1 1 1 2 3 3 3 4 5 5 6 6 6 6
4 5 5 3 2 1 3 2 4 5 7 8 9 11 12 13 13 13 12 11 10 10 9 8 8 7 8 7 7 7 7 5 4 5 4 3 2 1 2 2 2 2 3 4 4 4 5 5 6
3 4 2 6 3 3 2 3 4 5 9 11 12 12 13 13 13 13 13 12 11 10 9 9 8 8 8 8 7 7 7 7 6 6 5 4 4 3 4 3 3 3 3 3 3 3 4 4 4
4 3 5 5 3 2 2 3 5 10 13 13 13 13 13 13 12 12 11 12 11 10 9 9 8 8 7 7 7 6 6 7 6 6 7 6 6 5 4 4 3 3 3 3 3 3 3 3 3
5 5 6 5 3 4 1 3 3 6 8 10 11 11 11 11 10 9 9 9 10 10 10 10 10 10 9 8 8 7 7 7 7 6 6 6 5 5 5 4 4 4 4 3 3 3 3 3 3
4 3 3 4 2 2 2 4 4 4 6 7 9 10 9 9 9 8 8 8 9 10 10 10 10 10 9 9 8 8 8 8 8 8 7 7 7 6 5 5 5 5 4 3 3 2 2 3 2
Wind_Direction
325 110 107 69 54 50 43 336 303 44 55 39 77 92 99 98 160 202 115 137 136 143 152 158 157 156 154 151 148 145 139 133 129 128 128 129 128 128 128 127 126 127 127 130 133 134 130 125 119
163 128 73 59 75 63 348 317 349 55 122 136 72 72 73 68 73 105 130 144 142 145 146 154 160 160 159 159 157 152 146 139 134 131 129 128 127 125 124 123 122 122 123 124 127 127 125 120 117
141 96 77 65 80 124 113 298 125 92 106 75 67 54 67 91 129 146 155 145 143 145 143 161 163 164 166 167 165 159 156 149 144 140 135 130 126 124 122 119 117 117 117 118 121 123 123 122 119
102 52 52 62 45 305 275 271 145 127 63 48 80 60 54 79 152 151 141 147 147 147 147 167 166 170 173 175 172 169 167 161 156 150 144 138 132 128 125 121 114 111 112 113 115 121 123 123 117
63 73 55 42 5 336 337 328 135 119 74 49 74 77 35 8 114 132 144 154 154 153 158 173 172 176 179 180 178 177 177 171 167 161 157 153 145 137 130 124 115 106 103 102 103 112 119 116 107
58 64 67 28 345 340 4 9 68 88 94 92 93 85 29 95 131 145 154 158 162 163 167 176 180 181 184 185 185 185 185 181 178 173 171 169 163 153 145 136 124 110 95 88 83 85 99 99 93
88 78 85 48 351 354 353 351 66 98 110 146 126 98 74 193 173 153 155 153 161 171 174 182 183 186 189 191 192 192 193 190 188 187 188 187 184 177 171 164 151 135 108 86 73 67 75 83 85
105 94 75 42 25 342 331 1 43 53 81 113 113 135 187 205 167 142 139 144 164 182 190 193 192 188 190 196 199 198 198 197 196 196 199 201 203 200 196 188 188 189 181 137 73 57 60 68 71
78 75 105 186 145 310 335 22 21 23 63 44 57 171 200 146 138 134 137 157 181 198 205 205 203 199 196 199 208 204 204 203 201 203 206 203 205 214 210 203 209 222 228 234 250 5 35 55 46
70 103 187 197 191 210 14 31 10 34 30 13 15 34 87 127 149 163 176 189 199 207 208 208 211 208 202 208 211 208 204 201 197 192 202 187 178 202 211 220 226 231 237 248 256 272 15 58 45
82 146 200 219 223 320 63 57 29 41 21 350 333 31 88 115 142 183 214 220 219 222 218 211 212 214 209 216 212 206 203 196 195 193 193 181 178 195 209 202 245 256 256 271 325 1 44 57 41
93 126 105 354 40 38 48 73 55 38 1 340 30 57 55 56 39 19 1 338 315 282 252 235 214 211 213 216 219 208 205 203 203 199 190 181 184 195 200 203 212 219 210 216 233 241 258 265 266
68 87 59 28 55 59 61 55 68 29 23 49 57 55 52 48 39 32 28 20 10 358 336 302 240 218 214 213 220 213 212 214 211 203 199 192 194 202 204 209 210 212 204 208 222 232 240 242 238
36 76 58 31 41 57 73 47 44 13 25 52 54 53 50 44 36 31 25 20 14 7 356 346 318 251 222 217 220 221 215 213 207 208 208 201 202 203 204 214 215 216 208 207 210 226 242 251 242
78 92 54 26 20 60 86 46 23 4 37 49 43 43 41 36 32 28 18 13 7 1 358 355 349 346 286 240 230 227 219 214 212 214 209 206 205 204 206 214 221 219 204 199 202 219 232 253 244
47 59 47 13 10 19 80 63 9 11 44 45 35 30 30 27 25 19 13 10 4 0 359 357 359 354 338 299 257 240 224 215 218 214 209 209 209 206 204 212 224 215 188 185 193 197 214 237 226
33 54 43 12 14 37 74 76 22 24 43 41 30 23 19 16 15 10 5 3 359 355 352 351 351 349 339 320 283 251 233 221 219 216 210 211 209 206 204 214 220 204 189 191 204 188 186 206 209
1 60 57 39 29 62 81 77 40 30 41 37 24 14 9 6 359 354 353 354 350 347 346 346 345 342 335 324 307 280 248 229 218 216 214 205 206 205 203 213 218 206 200 201 196 194 188 194 188
97 107 91 58 74 80 89 80 47 33 33 26 15 5 358 350 342 342 344 346 345 345 346 343 343 338 338 332 326 309 280 251 229 221 216 204 200 199 197 205 205 203 215 219 200 183 186 185 141
68 87 50 26 82 102 107 85 49 38 34 20 7 355 346 342 342 341 339 342 342 339 338 336 336 331 330 321 308 287 283 270 245 229 215 205 197 189 190 188 188 187 203 219 197 176 171 168 157
48 105 351 288 70 85 116 66 18 356 8 9 6 353 346 340 336 332 332 333 333 333 334 334 328 327 326 321 311 305 293 284 268 235 220 212 200 188 187 185 178 174 178 195 194 183 178 175 176
324 334 304 257 122 51 5 246 360 330 338 357 355 349 342 336 331 328 327 325 323 321 324 324 324 325 325 323 320 316 306 294 283 273 247 225 208 195 188 180 176 174 177 185 190 180 178 165 169
289 314 326 118 120 70 24 58 333 337 348 345 342 339 335 331 329 325 323 318 317 316 319 320 322 326 327 328 328 322 311 299 294 279 249 234 215 202 193 187 180 179 180 181 179 172 178 177 175
332 57 64 54 70 55 343 36 350 343 331 328 332 334 333 331 329 326 323 321 319 319 322 324 329 329 333 337 340 340 335 330 326 321 298 244 166 152 167 174 179 181 181 180 180 177 180 183 181
32 66 46 25 35 26 331 61 320 296 317 321 327 331 333 335 336 334 334 335 332 332 332 334 336 336 342 346 350 353 352 353 356 351 351 16 71 97 154 164 170 174 177 174 172 177 182 186 190
28 80 118 140 140 323 14 27 285 284 315 323 329 334 341 345 347 345 344 342 340 338 341 347 348 348 351 354 355 2 7 8 11 16 21 30 42 55 91 121 138 150 162 171 172 173 180 183 190
51 55 111 117 108 74 10 335 312 328 339 343 343 344 342 342 346 349 350 351 348 350 353 354 356 358 359 1 2 9 12 18 19 21 27 29 33 46 61 79 98 114 136 153 160 169 169 166 172
81 95 70 79 110 85 352 343 321 324 332 336 339 338 334 337 343 349 352 353 354 357 358 1 6 4 1 4 10 13 11 16 17 24 31 31 32 37 49 60 70 83 96 116 128 131 132 138 142
20 47 72 78 92 126 94 306 275 297 309 320 323 325 325 330 334 340 343 347 352 359 2 6 10 13 14 14 16 17 16 18 23 27 29 30 34 36 45 56 64 66 72 82 98 110 124 127 124
92 74 111 119 100 105 135 274 289 309 306 310 316 323 326 330 330 332 338 346 353 358 1 5 10 16 16 17 22 24 25 25 30 31 30 33 37 36 41 50 58 59 59 62 72 89 117 136 147